[[{"header":{"parameterUnit":"m.s-1","parameterCategory":1,"la1":30.2992,"la2":30.254,"lo1":-89.0895,"lo2":-89.0443,"dy":0.0025,"dx":0.0025,"nx":19,"ny":19,"refTime":"2026-04-11T21:00:00:Z","depth":0,"parameterNumber":2,"parameterNumberName":"U-component_of_WINDS"},"data":[0,0,0,-3.1839,-3.1841,-3.1923,-3.1923,-3.2041,-3.2042,0,0,0,0,0,0,0,0,0,0,0,-3.1823,-3.1824,-3.1838,-3.1841,-3.1923,-3.1923,-3.2041,-3.2042,0,0,0,0,0,0,0,0,0,0,0,-3.1823,-3.1824,-3.1825,-3.1841,-3.1923,-3.1923,-3.2041,-3.1974,0,0,0,0,0,0,0,0,0,0,-3.1892,-3.1887,-3.1824,-3.1826,-3.1842,-3.1922,-3.1923,-3.197,-3.1978,-3.201,0,-3.2042,0,-3.2044,-3.2051,-3.2052,0,0,0,-3.1834,-3.188,-3.1895,-3.1826,-3.1843,-3.1922,-3.1884,-3.1975,-3.1983,-3.202,-3.2043,-3.2047,-3.2046,-3.2052,-3.2053,-3.2263,-3.2265,0,0,-3.1829,-3.1843,-3.1889,-3.1901,-3.189,-3.1881,-3.1886,-3.198,-3.2005,-3.2044,-3.205,-3.2048,-3.2053,-3.2054,-3.2262,-3.2264,0,0,0,-3.1821,-3.184,-3.1851,-3.1896,-3.191,-3.1884,-3.189,-3.2001,-3.2004,-3.2051,-3.205,-3.2054,-3.2055,-3.2261,-3.2263,-3.2341,0,0,0,-3.1818,-3.1835,-3.185,-3.1859,-3.1909,-3.1957,-3.1909,-3.1997,-3.2007,-3.2049,-3.2054,-3.2057,-3.2259,-3.2262,-3.2335,-3.2375,0,0,0,-3.1815,-3.1834,-3.1849,-3.1859,-3.1895,-3.1955,-3.1963,-3.1999,-3.2007,-3.2052,-3.2057,-3.2258,-3.2261,-3.2331,-3.2367,-3.2434,0,0,0,-3.1815,-3.1917,-3.1851,-3.1964,-3.1894,-3.2003,-3.1962,-3.2042,-3.209,-3.2055,-3.226,-3.2263,-3.2329,-3.2362,-3.2429,-3.2493,-3.252,0,0,-3.1951,-3.1933,-3.1999,-3.1942,-3.2066,-3.1989,-3.2124,-3.2155,-3.2146,-3.2225,-3.223,-3.2337,-3.2366,-3.2433,-3.2673,-3.2695,0,0,0,-3.2046,-3.2093,-3.2123,-3.217,-3.2197,-3.2223,-3.2232,-3.2244,-3.231,-3.219,-3.2379,-3.2396,-3.2435,-3.2464,-3.2483,-3.2515,-3.2277,-3.2277,-3.2276,-3.2256,-3.2241,-3.2349,-3.2344,-3.239,-3.2399,-3.2435,-3.2452,-3.2422,-3.2468,-3.249,-3.2638,-3.2673,-3.2687,-3.2721,-3.2523,-3.2523,-3.2524,-3.2524,-3.2453,-3.2517,-3.2477,-3.2567,-3.2551,-3.2625,-3.2638,-3.2615,-3.2682,-3.2619,-3.2652,-3.2584,-3.2712,-3.2741,-3.253,-3.2529,-3.2528,-3.2527,-3.2527,-3.2588,-3.2616,-3.263,-3.2697,-3.275,-3.2741,-3.2808,-3.2791,-3.2774,-3.2807,-3.2829,-3.2828,-3.2824,-3.2819,-3.282,-3.282,-3.2821,-3.2821,-3.2822,-3.2723,-3.2735,-3.2794,-3.2832,-3.2861,-3.2896,-3.2907,-3.2934,-3.2959,-3.2941,-3.2941,-3.2907,-3.2728,-3.2683,-3.2829,-3.2828,-3.2827,-3.2826,-3.2826,-3.2927,-3.2878,-3.2969,-3.2997,-3.3041,-3.3095,-3.3073,-3.313,-3.3149,-3.3183,-3.3143,-3.3013,-3.2994,-3.2979,-3.2941,-3.3146,-3.3146,-3.3146,-3.3146,-3.304,-3.303,-3.3119,-3.3165,-3.3209,-3.3199,-3.3301,-3.3311,-3.3314,-3.3325,-3.3293,-3.3242,-3.3228,-3.3217,-3.3197,-3.3162,-3.3418,-3.3418,-3.3418,-3.3165,-3.3157,-3.3248,-3.3251,-3.3284,-3.3313,-3.3409,-3.3464,-3.3457,-3.3429,-3.3334,-3.3322,-3.324,-3.3214,-3.3182,-3.3151,-3.3086,0,0]},{"header":{"parameterUnit":"m.s-1","parameterCategory":1,"la1":30.2992,"la2":30.254,"lo1":-89.0895,"lo2":-89.0443,"dy":0.0025,"dx":0.0025,"nx":19,"ny":19,"refTime":"2026-04-11T21:00:00:Z","depth":0,"parameterNumber":3,"parameterNumberName":"V-component_of_WINDS"},"data":[0,0,0,0.0385,0.0385,0.0383,0.0383,0.0383,0.0383,0,0,0,0,0,0,0,0,0,0,0,0.0387,0.0387,0.0385,0.0385,0.0383,0.0383,0.0383,0.0383,0,0,0,0,0,0,0,0,0,0,0,0.0387,0.0387,0.0387,0.0385,0.0383,0.0383,0.0383,0.0383,0,0,0,0,0,0,0,0,0,0,0.0385,0.0389,0.0387,0.0387,0.0385,0.0383,0.0383,0.0383,0.0383,0.0385,0,0.0387,0,0.0385,0.0383,0.0383,0,0,0,0.0383,0.0389,0.0387,0.0387,0.0385,0.0383,0.0383,0.0383,0.0383,0.0385,0.0387,0.0387,0.0385,0.0383,0.0383,0.04,0.04,0,0,0.0383,0.0387,0.0387,0.0387,0.0388,0.0383,0.0383,0.0383,0.0386,0.0387,0.0387,0.0385,0.0383,0.0383,0.04,0.04,0,0,0,0.0385,0.0388,0.0385,0.0387,0.0386,0.0383,0.0383,0.0386,0.0385,0.0387,0.0385,0.0383,0.0383,0.04,0.04,0.0412,0,0,0,0.0385,0.0388,0.0386,0.0388,0.0386,0.0386,0.0386,0.0385,0.0385,0.0385,0.0383,0.0383,0.04,0.04,0.0412,0.0417,0,0,0,0.0386,0.0389,0.0389,0.0388,0.0388,0.0386,0.0385,0.0385,0.0383,0.0383,0.0383,0.04,0.04,0.0411,0.0416,0.0423,0,0,0,0.039,0.0399,0.0389,0.0399,0.0388,0.0394,0.0385,0.0389,0.039,0.0383,0.04,0.04,0.0411,0.0415,0.0423,0.043,0.0434,0,0,0.0404,0.0401,0.0406,0.0398,0.0406,0.0394,0.0404,0.0401,0.0396,0.0399,0.0399,0.0412,0.0416,0.0423,0.0452,0.0455,0,0,0,0.0412,0.0416,0.0418,0.042,0.0418,0.0417,0.0412,0.0411,0.0413,0.0399,0.0416,0.0419,0.0423,0.0426,0.0428,0.0432,0.0402,0.0402,0.0402,0.0438,0.0433,0.0442,0.0437,0.0439,0.0434,0.0436,0.0433,0.0427,0.0431,0.0432,0.045,0.0454,0.0456,0.046,0.0435,0.0435,0.0435,0.0435,0.0459,0.0464,0.0456,0.0462,0.0457,0.0462,0.0458,0.0454,0.0458,0.0449,0.0452,0.0443,0.0459,0.0462,0.0436,0.0436,0.0436,0.0436,0.0436,0.0475,0.0476,0.0476,0.0479,0.0482,0.0476,0.0481,0.0476,0.0471,0.0474,0.0475,0.0474,0.0474,0.0475,0.0475,0.0475,0.0475,0.0475,0.0475,0.0492,0.0491,0.0495,0.0496,0.0497,0.0498,0.0494,0.0495,0.0495,0.049,0.049,0.0484,0.0462,0.0457,0.0476,0.0476,0.0476,0.0476,0.0476,0.0514,0.0509,0.0516,0.0517,0.0518,0.0521,0.0515,0.0518,0.0518,0.0521,0.0514,0.0498,0.0495,0.0493,0.0488,0.0515,0.0515,0.0515,0.0515,0.0528,0.0526,0.0533,0.0536,0.0538,0.0533,0.0542,0.054,0.0536,0.0536,0.0532,0.0525,0.0524,0.0521,0.0518,0.0514,0.0546,0.0547,0.0547,0.0542,0.054,0.0548,0.0546,0.0546,0.0546,0.0555,0.0558,0.0553,0.0548,0.0536,0.0535,0.0525,0.0521,0.0515,0.0511,0.0503,0,0]}]]